Content
SEND FEEDBACK

Daily
Averages
Monthly
Summary
Iran

ZAHEDAN, IRAN


Home > Middle East > Iran
Elevation: 4494 feet     Latitude: 29 28N     Longitude: 060 53E

WEATHER
 
SELECT A DAY
Number of Records: 142,436;   Date Range: 4/23/97 - 10/19/14
 
SHARE

PRINT THIS DATA

[ ← Previous Day ]
WEATHER ALMANAC - JANUARY 31, 2013
[ Next Day → ]
[ °C ]   °F
Weather ElementAverageHighLow
Temperature61.1 °F68 °F (12:00 pm)50 °F (6:30 am)
Dewpoint39.2 °F41 °F (8:30 am)35.6 °F (12:30 pm)
Humidity44.6 %66 % (6:30 am)24 % (3:30 pm)
Barometer29.96 in30.06 in (7:30 am)29.78 in (3:30 pm)
Wind Speed13.1 mph18.4 mph (2:00 pm)
Weather ElementAverage
Visibility4.9 mi
Wind DirectionSSE (147 °)

Weather ElementTotal
Precipitation---
Heating Degree Days6 (Base 65)
Growing Degree Days9 (Base 50)
Averaged from 30 records on January 31, 2013
WEATHER CONDITIONS BREAKOUT
WIND DIRECTION BREAKOUT
WEATHER BY HOUR - JANUARY 31, 2013
[ °C ]   °F
Local TimeTemperatureDewpointHumidityBarometerVisibilityWind DirectionWind SpeedGust SpeedPrecipitationEventsConditions
1:30 AM53.6 °F39.2 °F58 %29.98 inSouth (170°)4.6 mphClear
2:30 AM53.6 °F39.2 °F58 %30.01 inNorthClear
3:30 AM51.0 °F38.0 °F51 %29.83 in6.0 miEast (90°)6.7 mphClear
5:30 AM51.8 °F39.2 °F62 %30.01 inESE (120°)6.9 mphClear
6:30 AM50.0 °F39.2 °F66 %30.04 in5.0 miSouth (180°)9.2 mph
7:30 AM51.8 °F39.2 °F62 %30.06 in3.7 miSSE (150°)9.2 mph
8:30 AM59.0 °F41.0 °F51 %30.06 in3.7 miSouth (190°)9.2 mph
9:30 AM62.6 °F41.0 °F45 %30.06 in4.3 miESE (120°)6.9 mphScattered Clouds
10:30 AM64.4 °F37.4 °F37 %30.06 in4.3 miSE (130°)13.8 mphScattered Clouds
11:30 AM66.2 °F37.4 °F35 %30.01 in5.0 miESE (120°)11.5 mphScattered Clouds
12:00 PM68.0 °F37.4 °F33 %30.01 in5.0 miESE (120°)13.8 mphMostly Cloudy
12:30 PM68.0 °F35.6 °F30 %29.98 in5.0 miESE (110°)13.8 mphMostly Cloudy
1:00 PM66.2 °F37.4 °F35 %29.95 in5.0 miESE (120°)13.8 mphMostly Cloudy
1:30 PM68.0 °F37.4 °F33 %29.95 in5.0 miESE (120°)16.1 mphMostly Cloudy
2:00 PM68.0 °F37.4 °F33 %29.95 in5.0 miSE (130°)18.4 mphMostly Cloudy
2:30 PM68.0 °F39.2 °F35 %29.95 in5.0 miESE (110°)16.1 mphMostly Cloudy
3:00 PM68.0 °F41.0 °F37 %29.92 in5.0 miESE (120°)16.1 mphMostly Cloudy
3:30 PM67.0 °F39.0 °F24 %29.78 in5.0 miSE (140°)15.7 mphBlowing Sand
3:30 PM66.2 °F39.2 °F37 %29.95 in5.0 miSE (140°)16.1 mphMostly Cloudy
4:30 PM66.2 °F39.2 °F37 %29.95 in5.0 miSSE (150°)16.1 mphMostly Cloudy
5:30 PM64.4 °F37.4 °F37 %29.95 in5.0 miSouth (180°)13.8 mphMostly Cloudy
6:30 PM60.8 °F39.2 °F45 %29.95 in5.0 miSouth (190°)11.5 mphMostly Cloudy
7:30 PM59.0 °F41.0 °F51 %29.98 in5.0 miSSW (210°)16.1 mph
8:30 PM59.0 °F41.0 °F51 %29.95 in5.0 miSW (220°)18.4 mph
9:00 PM59.0 °F41.0 °F51 %29.98 in5.0 miSSW (200°)16.1 mph
9:30 PM58.0 °F40.0 °F40 %29.79 in5.0 miSSE (160°)11.2 mphHaze
9:30 PM59.0 °F41.0 °F51 %29.95 in5.0 miSSE (160°)11.5 mph
10:00 PM59.0 °F41.0 °F51 %29.95 in5.0 miSouth (180°)13.8 mph
10:30 PM59.0 °F41.0 °F51 %29.95 in5.0 miSSW (210°)13.8 mph
11:30 PM59.0 °F41.0 °F51 %29.92 in5.0 miSouth (170°)18.4 mph
Hourly data recorded from OIZH, located miles away from Zahedan, Iran







STORIES FROM OUR PARTNERS